• en France
  • Liste des pays
  • À 7 jours
  • Température de l'eau
  • Carte satellitaire
  • Carte météo
  • Widgets météo
  • user-avatar
    Se connecter

    Météo par heure à Kepina

    Ce jour, 23 Octobre, Mardi

    Heure Température Précipitation Vent Pression Humidité
    00:00 +5°C° 0 mm 4 m/s 757 mmHg 85%
    01:00 +4°C° 0 mm 4 m/s 756 mmHg 87%
    02:00 +4°C° 0 mm 4 m/s 756 mmHg 86%
    03:00 +4°C° 0 mm 4 m/s 755 mmHg 86%
    04:00 +2°C° 0 mm 5 m/s 754 mmHg 86%
    05:00 +3°C° 0 mm 6 m/s 753 mmHg 83%
    06:00 +3°C° 0 mm 6 m/s 752 mmHg 80%
    07:00 +3°C° 0 mm 7 m/s 751 mmHg 79%
    08:00 +3°C° 0.2 mm 9 m/s 750 mmHg 76%
    09:00 +5°C° 0.2 mm 10 m/s 749 mmHg 72%
    10:00 +4°C° 0.2 mm 11 m/s 747 mmHg 69%
    11:00 +4°C° 1.4 mm 11 m/s 746 mmHg 72%
    12:00 +4°C° 1.4 mm 11 m/s 745 mmHg 75%
    13:00 +4°C° 1.4 mm 12 m/s 744 mmHg 79%
    14:00 +5°C° 0.6 mm 12 m/s 742 mmHg 79%
    15:00 +5°C° 0.6 mm 12 m/s 741 mmHg 80%
    16:00 +7°C° 0.6 mm 12 m/s 740 mmHg 81%
    17:00 +7°C° 1.5 mm 11 m/s 739 mmHg 82%
    18:00 +8°C° 1.5 mm 10 m/s 739 mmHg 84%
    19:00 +8°C° 1.5 mm 10 m/s 738 mmHg 85%
    20:00 +8°C° 0.7 mm 10 m/s 738 mmHg 82%
    21:00 +8°C° 0.7 mm 10 m/s 738 mmHg 79%
    22:00 +8°C° 0.7 mm 10 m/s 738 mmHg 76%
    23:00 +7°C° 0.1 mm 10 m/s 737 mmHg 75%

    Demain, 24 Octobre, Mercredi

    Heure Température Précipitation Vent Pression Humidité
    00:00 +7°C° 0.1 mm 10 m/s 737 mmHg 73%
    01:00 +6°C° 0.1 mm 10 m/s 737 mmHg 72%
    02:00 +6°C° 0.1 mm 10 m/s 737 mmHg 70%
    03:00 +5°C° 0.1 mm 10 m/s 737 mmHg 67%
    04:00 +5°C° 0.1 mm 10 m/s 738 mmHg 65%
    05:00 +5°C° 0.1 mm 10 m/s 738 mmHg 65%
    06:00 +3°C° 0.1 mm 9 m/s 739 mmHg 65%
    07:00 +4°C° 0.1 mm 8 m/s 740 mmHg 66%
    08:00 +3°C° 0 mm 9 m/s 741 mmHg 59%
    09:00 +5°C° 0 mm 10 m/s 741 mmHg 52%
    10:00 +6°C° 0 mm 11 m/s 742 mmHg 46%
    11:00 +6°C° 0 mm 11 m/s 742 mmHg 45%
    12:00 +6°C° 0 mm 11 m/s 743 mmHg 44%
    13:00 +7°C° 0 mm 11 m/s 743 mmHg 43%
    14:00 +6°C° 0 mm 10 m/s 744 mmHg 45%
    15:00 +6°C° 0 mm 9 m/s 745 mmHg 46%
    16:00 +6°C° 0 mm 8 m/s 745 mmHg 48%
    17:00 +5°C° 0 mm 8 m/s 746 mmHg 50%
    18:00 +4°C° 0 mm 7 m/s 746 mmHg 53%
    19:00 +4°C° 0 mm 6 m/s 747 mmHg 56%
    20:00 +3°C° 0 mm 6 m/s 747 mmHg 58%
    21:00 +3°C° 0 mm 6 m/s 748 mmHg 60%
    22:00 +3°C° 0 mm 6 m/s 748 mmHg 62%
    23:00 +3°C° 0 mm 6 m/s 748 mmHg 65%

    Après-demain, 25 Octobre, Jeudi

    Heure Température Précipitation Vent Pression Humidité
    00:00 +2°C° 0 mm 6 m/s 748 mmHg 68%
    01:00 +2°C° 0 mm 5 m/s 748 mmHg 71%
    02:00 +2°C° 0 mm 5 m/s 747 mmHg 72%
    03:00 +2°C° 0 mm 5 m/s 747 mmHg 73%
    04:00 +2°C° 0 mm 5 m/s 746 mmHg 74%
    05:00 +3°C° 0.8 mm 5 m/s 745 mmHg 79%
    06:00 +3°C° 0.8 mm 5 m/s 745 mmHg 84%
    07:00 +3°C° 0.8 mm 5 m/s 744 mmHg 89%
    08:00 +5°C° 0.9 mm 6 m/s 743 mmHg 89%
    09:00 +8°C° 0.9 mm 7 m/s 743 mmHg 89%
    10:00 +8°C° 0.9 mm 9 m/s 742 mmHg 88%
    11:00 +8°C° 0.3 mm 9 m/s 742 mmHg 86%
    12:00 +10°C° 0.3 mm 9 m/s 741 mmHg 84%
    13:00 +9°C° 0.3 mm 10 m/s 741 mmHg 82%
    14:00 +10°C° 0.2 mm 9 m/s 741 mmHg 80%
    15:00 +10°C° 0.2 mm 9 m/s 742 mmHg 77%
    16:00 +10°C° 0.2 mm 9 m/s 742 mmHg 75%
    17:00 +9°C° 0.1 mm 8 m/s 742 mmHg 75%
    18:00 +9°C° 0.1 mm 7 m/s 743 mmHg 75%
    19:00 +8°C° 0.1 mm 7 m/s 743 mmHg 74%
    20:00 +7°C° 0 mm 6 m/s 743 mmHg 76%
    21:00 +7°C° 0 mm 6 m/s 744 mmHg 77%
    22:00 +5°C° 0 mm 6 m/s 744 mmHg 78%
    23:00 +5°C° 0 mm 6 m/s 744 mmHg 79%

    26 Octobre, Vendredi

    Heure Température Précipitation Vent Pression Humidité
    00:00 +6°C° 0 mm 5 m/s 744 mmHg 81%
    01:00 +5°C° 0 mm 5 m/s 744 mmHg 82%
    02:00 +5°C° 0 mm 5 m/s 744 mmHg 83%
    03:00 +5°C° 0 mm 5 m/s 744 mmHg 85%
    04:00 +5°C° 0 mm 5 m/s 744 mmHg 86%
    05:00 +5°C° 0 mm 5 m/s 744 mmHg 87%
    06:00 +4°C° 0 mm 4 m/s 744 mmHg 89%
    07:00 +4°C° 0 mm 4 m/s 744 mmHg 90%
    08:00 +5°C° 0 mm 4 m/s 744 mmHg 87%
    09:00 +6°C° 0 mm 4 m/s 744 mmHg 84%
    10:00 +7°C° 0 mm 4 m/s 744 mmHg 81%
    11:00 +8°C° 0.1 mm 5 m/s 743 mmHg 81%
    12:00 +9°C° 0.1 mm 5 m/s 742 mmHg 81%
    13:00 +9°C° 0.1 mm 5 m/s 742 mmHg 82%
    14:00 +10°C° 0 mm 5 m/s 741 mmHg 80%
    15:00 +10°C° 0 mm 5 m/s 741 mmHg 79%
    16:00 +10°C° 0 mm 5 m/s 740 mmHg 78%
    17:00 +9°C° 0 mm 5 m/s 740 mmHg 76%
    18:00 +9°C° 0 mm 6 m/s 740 mmHg 75%
    19:00 +9°C° 0 mm 7 m/s 739 mmHg 74%
    20:00 +8°C° 0 mm 7 m/s 739 mmHg 74%
    21:00 +7°C° 0 mm 8 m/s 739 mmHg 73%
    22:00 +7°C° 0 mm 8 m/s 739 mmHg 72%
    23:00 +6°C° 0 mm 8 m/s 739 mmHg 72%

    27 Octobre, Samedi

    Heure Température Précipitation Vent Pression Humidité
    00:00 +6°C° 0 mm 8 m/s 739 mmHg 72%
    01:00 +5°C° 0 mm 8 m/s 740 mmHg 71%
    02:00 +5°C° 0 mm 8 m/s 740 mmHg 72%
    03:00 +4°C° 0 mm 8 m/s 740 mmHg 72%
    04:00 +4°C° 0 mm 8 m/s 741 mmHg 73%
    05:00 +4°C° 0 mm 8 m/s 741 mmHg 72%
    06:00 +4°C° 0 mm 8 m/s 741 mmHg 72%
    07:00 +4°C° 0 mm 8 m/s 742 mmHg 71%
    08:00 +4°C° 0 mm 8 m/s 742 mmHg 70%
    09:00 +5°C° 0 mm 8 m/s 743 mmHg 68%
    10:00 +5°C° 0 mm 8 m/s 743 mmHg 67%
    11:00 +5°C° 0 mm 7 m/s 743 mmHg 66%
    12:00 +5°C° 0 mm 7 m/s 744 mmHg 65%
    13:00 +7°C° 0 mm 6 m/s 744 mmHg 64%
    14:00 +6°C° 0 mm 5 m/s 744 mmHg 64%
    15:00 +6°C° 0 mm 4 m/s 744 mmHg 64%
    16:00 +7°C° 0 mm 3 m/s 745 mmHg 65%
    17:00 +7°C° 0 mm 3 m/s 745 mmHg 68%
    18:00 +6°C° 0 mm 2 m/s 746 mmHg 71%
    19:00 +6°C° 0 mm 2 m/s 746 mmHg 74%
    20:00 +7°C° 0 mm 1 m/s 747 mmHg 75%
    21:00 +6°C° 0 mm 1 m/s 747 mmHg 76%
    22:00 +6°C° 0 mm 1 m/s 747 mmHg 78%
    23:00 +6°C° 0 mm 1 m/s 747 mmHg 78%

    28 Octobre, Dimanche

    Heure Température Précipitation Vent Pression Humidité
    00:00 +6°C° 0 mm 1 m/s 747 mmHg 78%
    01:00 +5°C° 0 mm 1 m/s 747 mmHg 79%
    02:00 +5°C° 0 mm 1 m/s 747 mmHg 79%
    03:00 +4°C° 0 mm 2 m/s 748 mmHg 79%
    04:00 +4°C° 0 mm 2 m/s 748 mmHg 79%
    05:00 +4°C° 0 mm 2 m/s 748 mmHg 79%
    06:00 +3°C° 0 mm 3 m/s 748 mmHg 79%
    07:00 +3°C° 0 mm 3 m/s 748 mmHg 79%
    08:00 +4°C° 0.1 mm 3 m/s 749 mmHg 76%
    09:00 +4°C° 0.1 mm 4 m/s 749 mmHg 74%
    10:00 +5°C° 0.1 mm 4 m/s 749 mmHg 72%
    11:00 +5°C° 0.3 mm 4 m/s 748 mmHg 71%
    12:00 +5°C° 0.3 mm 5 m/s 748 mmHg 70%
    13:00 +5°C° 0.3 mm 5 m/s 748 mmHg 69%
    14:00 +4°C° 0.7 mm 6 m/s 748 mmHg 71%
    15:00 +3°C° 0.7 mm 6 m/s 748 mmHg 73%
    16:00 +3°C° 0.7 mm 6 m/s 748 mmHg 75%
    17:00 +3°C° 0.4 mm 6 m/s 748 mmHg 76%
    18:00 +3°C° 0.4 mm 7 m/s 748 mmHg 77%
    19:00 +3°C° 0.4 mm 7 m/s 748 mmHg 78%
    20:00 +3°C° 0.2 mm 7 m/s 747 mmHg 79%
    21:00 +2°C° 0.2 mm 8 m/s 747 mmHg 79%
    22:00 +2°C° 0.2 mm 8 m/s 747 mmHg 80%
    23:00 +2°C° 1.6 mm 8 m/s 746 mmHg 80%

    29 Octobre, Lundi

    Heure Température Précipitation Vent Pression Humidité
    00:00 +2°C° 1.6 mm 9 m/s 746 mmHg 81%
    01:00 +2°C° 1.6 mm 9 m/s 746 mmHg 82%
    02:00 +1°C° 1.4 mm 9 m/s 745 mmHg 82%
    03:00 +1°C° 1.4 mm 10 m/s 745 mmHg 81%
    04:00 +1°C° 1.4 mm 10 m/s 744 mmHg 81%
    05:00 +1°C° 1.2 mm 10 m/s 744 mmHg 82%
    06:00 +1°C° 1.2 mm 10 m/s 744 mmHg 82%
    07:00 +1°C° 1.2 mm 9 m/s 743 mmHg 83%
    08:00 +1°C° 1 mm 10 m/s 743 mmHg 83%
    09:00 +1°C° 1 mm 10 m/s 743 mmHg 84%
    10:00 +1°C° 1 mm 10 m/s 743 mmHg 84%
    11:00 +1°C° 1.3 mm 9 m/s 742 mmHg 85%
    12:00 +1°C° 1.3 mm 9 m/s 742 mmHg 86%
    13:00 +1°C° 1.3 mm 9 m/s 742 mmHg 87%
    14:00 +1°C° 0.9 mm 8 m/s 741 mmHg 87%
    15:00 +1°C° 0.9 mm 8 m/s 741 mmHg 88%
    16:00 +2°C° 0.9 mm 7 m/s 741 mmHg 89%
    17:00 +2°C° 0.3 mm 7 m/s 741 mmHg 89%
    18:00 +2°C° 0.3 mm 6 m/s 741 mmHg 90%
    19:00 +2°C° 0.3 mm 6 m/s 741 mmHg 90%
    20:00 +2°C° 0.1 mm 6 m/s 741 mmHg 91%
    21:00 +2°C° 0.1 mm 5 m/s 740 mmHg 91%
    22:00 +2°C° 0.1 mm 5 m/s 740 mmHg 92%
    23:00 +3°C° 0 mm 5 m/s 740 mmHg 92%
    Voir plus